CZ-4B R/B, 43656

Orbit data source: Space-Track

CZ-4B R/B, 43656 is space debris in SSO originally from a launch on Wed, 24 Oct 2018 UTC via a CHANG ZHENG 4B launch vehicle from the Taiyaun Space Center, China (TSC). Debris objects in space refer to the collection of defunct objects orbiting the Earth. Examples of debris include non-operational satellites, rocket bodies, and fragments generated from explosions, collisions, or faulty payload assembly.

Loading next visibility...
Identifier
43656, 2018-081B
Orbit
SSO
Country
Flag of CNCN / PRC
Related business
Flag of CNAliExpress, Alibaba Group (CN)
Manufacturer
SAST?
Mission
Spacecraft
Bus & Motor
Unknown
Mass
1,020 kg wet, 20 kg dry
Launch date (UTC)
2018-10-24 (8 years ago)
Launch vehicle
CHANG ZHENG 4B
Launch site
Taiyaun Space Center, China (TSC)
Object type
Payload
Rocket body
Debris
Shape & HBR
Cyl + Box, 2.6 m
Radar Cross Section
19.378 m², Large (>1 m²)

Expand to show TLE details & history
Last TLE update: 13 hours ago

TLE from 13 hours ago
0 CZ-4B R/B
1 43656U 18081B   26127.23696975  .00000204  00000-0  77652-4 0  9994
2 43656  99.3692  41.8955 0205261  24.9775 336.1171 14.31848713393441
Epoch: 2026-05-07T05:41Z
TLE epoch observation values (Epoch: 2026-05-07T05:41:14.186Z)
Latitude
0.00001°
Longitude
91.50039°
Altitude
654.497 km
Speed
7.6 km/s
True Right ascension
02h 47m 34s
True Declination
0° 00' 00"
Sunlit
Object was in daylight at epoch
Visualization orbit readout
Latitude
Unknown
Longitude
Unknown
Altitude
Unknown
Speed
Unknown
Apparent Right ascension
Unknown
Apparent Declination
Unknown
Sunlit
N/A
Visualization observer readout
Local Sidereal Time
02:51:03
Azimuth
Unknown
Elevation
Unknown
Doppler factor
Unknown
Orbital elements
Apogee altitude
929.717 km
Perigee altitude
635.747 km
Semi-major axis
7,160.869 km
Eccentricity
0.02053
Inclination
99.3692°
RAAN
41.8955°
Arg. of periapsis
24.9775°
True anomaly
335.14199°
Mean anomaly
336.1171°
Eccentric anomaly
335.63186°
Mean motion
3.58174 °/min
Orbital period
100.51 mins
BSTAR
0.000077652
Loading maneuver chart data...
Computing Atmospheric mass density...
Loading historical data...
Loading historical data...
Loading historical data...
Loading historical data...
Loading historical data...
Loading historical data...
Loading historical data...

Documentation

Showing up to 5 results
|